Home   Weather   Manhattan   Past weeks

Flag for USA Past Weather in Manhattan, Kansas, USA — Yesterday and Last 2 Weeks

65 °F

Passing clouds.

Feels Like: 65 °F
Forecast: 55 / 75 °F
Wind: 8 mph from Southwest

Location: Manhattan Municipal Airport

Current Time: Oct 26, 2016 at 6:37:55 AM

Latest Report: Oct 26, 2016 at 5:52 AM

Visibility: 10 mi

Pressure: 29.96 "Hg

Humidity: 91%

Dew Point: 62 °F

Location of ManhattanLocation

Past Weather in Manhattan — Graph


Manhattan Temperature Yesterday

Maximum temperature yesterday: 84 °F (at 1:52 PM)
Minimum temperature yesterday: 54 °F (at 5:52 AM)
Average temperature yesterday: 68 °F

High & Low Weather Summary for the Past Weeks

High89 °F (Oct 17, 2:52 PM)100% (Oct 16, 12:52 AM)30.39 "Hg (Oct 16, 12:52 AM)
Low32 °F (Oct 13, 6:52 AM)30% (Oct 23, 2:52 PM)29.33 "Hg (Oct 17, 3:52 PM)
Average61 °F69%30.00 "Hg
* Reported Oct 11 4:52 AM — Oct 26 4:52 AM, Manhattan, Weather by CustomWeather, © 2016

Note: Actual official high and low records may vary slightly from our data, if they occured in-between our weather recording intervals... More about our weather records


Manhattan Weather History for the Previous 24 Hours

Scroll right to see more
Time TempWeatherWind HumidityBarometerVisibility
4:52 AM
Wed, Oct 26
64 °FPassing clouds.3 mph94%29.96 "Hg10 mi
3:52 AM66 °FLight rain. Partly cloudy.15 mph90%29.96 "Hg10 mi
2:52 AM66 °FLight rain. Overcast.10 mph90%29.95 "Hg10 mi
1:52 AM64 °FStrong thunderstorms. Fog.16 mph87%29.98 "Hg3 mi
12:52 AM67 °FStrong thunderstorms. Fog.21 mph93%29.95 "Hg2 mi
11:52 PM
Tue, Oct 25
70 °FThunderstorms. Passing clouds.10 mph76%29.94 "Hg10 mi
10:52 PM71 °FPartly cloudy.15 mph71%29.95 "Hg10 mi
9:52 PM72 °FClear.12 mph68%29.95 "Hg10 mi
8:52 PM72 °FClear.12 mph68%29.97 "Hg10 mi
7:52 PM74 °FClear.14 mph64%29.97 "Hg10 mi
6:52 PM75 °FClear.14 mph64%29.94 "Hg10 mi
5:52 PM78 °FSunny.17 mph58%29.93 "Hg10 mi
4:52 PM80 °FSunny.15 mph52%29.93 "Hg10 mi
3:52 PM81 °FSunny.20 mph49%29.94 "Hg10 mi
2:52 PM84 °FSunny.20 mph45%29.95 "Hg10 mi
1:52 PM84 °FSunny.20 mph46%29.97 "Hg10 mi
12:52 PM83 °FSunny.15 mph48%30.01 "Hg10 mi
11:52 AM77 °FSunny.12 mph58%30.05 "Hg10 mi
10:52 AM71 °FSunny.12 mph68%30.08 "Hg10 mi
9:52 AM68 °FSunny.7 mph73%30.09 "Hg10 mi
8:52 AM57 °FSunny.3 mph83%30.10 "Hg10 mi
7:52 AM54 °FSunny.5 mph83%30.10 "Hg10 mi
6:52 AM54 °FClear.3 mph80%30.12 "Hg10 mi
Weather by CustomWeather, © 2016

See weather overviewHow to use our weather pages